FENGYUN 1C DEB

Satellite information

Favourite Embed

Satellite Type and Status

DEBRISIN ORBIT

Key statistics

Satellite FENGYUN 1C DEB at a glance.

Uptime

9714

Days in orbit

Revolutions

≈ 14.4

Per day

Orbit

SSO

Sun Synchronous Orbit

Inclination

98.8

Latest

Satellite identification and parameters

Extended collection of information and parameters for FENGYUN 1C DEB.

Object identification

Identified? True

Debris? True

Object name: FENGYUN 1C DEB

International designator: 1999-025KU

Object number (NORAD): 29970

Object ID (CCSDS): 29970

Country: PEOPLES REPUBLIC OF CHINA (PRC)

Current information (Y/N): Y

RCS size: MEDIUM

Orbital parameters

Period: 99.726 minutes

Inclination: 98.808 deg

SMA: 7123.611 km

Apoapsis: 810.108 km

Periapsis: 680.845 km

RAAN: 274.5914 deg

Eccentricy: 0.00907286

Argument of periapsis: 188.832 deg

Mean anomaly: 292.7122 deg

Mean motion: 14.43951038 rev/day

Mean motion (dot): 0.00002544 rev/day2

B* drag term: 0.00072263485 1/REarth

Two-line elements (TLE)

Creation date: Dec. 12, 2025, 10:14 a.m.

Reference frame: TEME

Reference center: EARTH

Epoch: Dec. 12, 2025, 7:04 a.m. UTC

TLE line 0: 0 FENGYUN 1C DEB

TLE line 1: 1 29970U 99025KU 25346.29457399 .00002544 00000-0 72263-3 0 9998

TLE line 2: 2 29970 98.8080 274.5914 0090729 188.8320 292.7122 14.43951038991148

Live tracking on map

Real-time ground track for satellite FENGYUN 1C DEB.

In-orbit conjunctions

A list of the most updated potential collisions computed for object FENGYUN 1C DEB.

Target Orbit TCA Probability of collision Miss distance Type
CZ-6A DEB LEO 2025-04-14 15:01:08 0.0001303127 157.0 (m) DEBRIS
IRIDIUM 16 LEO 2025-04-11 07:11:30 0.0008240197 542.0 (m) PAYLOAD
FENGYUN 1C DEB SSO 2024-08-25 17:40:15 0.0001622367 206.0 (m) DEBRIS

Associated space launch

Chinese polar orbiting meteorological satellite

FENGYUN 1C DEB was lifted into orbit during the mission ‘Long March 4B | Feng Yun 1C’, on board a Long March 4B space rocket.

The launch took place on May 10, 1999, 1:33 a.m. from Launch Complex 7.

For more information about the launch, click the button.

Launch to space Long March 4B | Feng Yun 1C
Long March 4B | Feng Yun 1C

Agency: N/A

Status: Launch Successful

Launch date: May 10, 1999, 1:33 a.m. UTC

Rocket: Long March 4B

Launch pad: Launch Complex 7

Location: Taiyuan Satellite Launch Center, People's Republic of China

...

Latest news about this satellite

There are no fresh news available about this satellite. Check back as we update our databases every day.


Newsletter sign-up

Weekly statistics, charts and insights to help you stay on top of the space industry.